Weather History for Tri-Cities, TN

Change the Weather History Date:

Thursday, April 5, 2012

  Actual Average Record
Temperature  
Mean Temperature 64 °F 52 °F  
Max Temperature 73 °F 65 °F 84 °F (1947)
Min Temperature 54 °F 39 °F 23 °F (1944)
Degree Days  
Heating Degree Days 1 13  
Month to date heating degree days 9 67  
Since 1 July heating degree days 3135 4017  
Cooling Degree Days 0 0  
Month to date cooling degree days 1 0  
Year to date cooling degree days 7 1  
Growing Degree Days 12 (Base 50)    
Moisture  
Dew Point 56 °F    
Average Humidity 81    
Maximum Humidity 100    
Minimum Humidity 61    
Precipitation  
Precipitation 0.43 in 0.11 in 0.90 in (1983)
Month to date precipitation 2.21 0.54  
Year to date precipitation 13.10 10.80  
Snow  
Snow 0.00 in 0.00 in - ()
Month to date snowfall 0.0 0.2  
Since 1 July snowfall 1.2 12.4  
Snow Depth 0.00 in    
Sea Level Pressure  
Sea Level Pressure 29.72 in    
Wind  
Wind Speed 3 mph (NNE)    
Max Wind Speed 7 mph    
Max Gust Speed 20 mph    
Visibility 6 miles    
Events Fog , Rain , Thunderstorm    
T = Trace of Precipitation, MM = Missing Value Source: NWS Daily Summary

Daily Weather History Graph

Daily Weather History Graph

Search for Another Location

Airport:

Trip Planner

Search our weather history database for the weather conditions in past years. The results will help you decide how hot, cold, wet, or windy it might be!

Date:

Astronomy

Apr. 05, 2012 Rise Set
Actual Time 7:09 AM EDT 7:55 PM EDT
Civil Twilight 6:43 AM EDT 8:21 PM EDT
Nautical Twilight 6:12 AM EDT 8:52 PM EDT
Astronomical Twilight 5:40 AM EDT 9:24 PM EDT
Moon 7:00 PM EDT (4/5) 6:03 AM EDT (4/5)
Length of Visible Light 13h 38m
Length of Day
12h 46m
Waxing Gibbous, 98% of the Moon is Illuminated
Apr 5
Waxing Gibbous
Apr 6
Full
Apr 13
Last Quarter
Apr 21
New
Apr 29
First Quarter

Hourly Weather History & Observations

Time (EDT) Temp. Dew Point Humidity Pressure Visibility Wind Dir Wind Speed Gust Speed Precip Events Conditions
12:53 AM 59.0 °F 57.9 °F 96% 29.70 in 6.0 mi Calm Calm - N/A   Mostly Cloudy
1:39 AM 57.2 °F 57.2 °F 100% 29.74 in 1.8 mi Calm Calm - N/A   Mostly Cloudy
1:46 AM 57.2 °F 57.2 °F 100% 29.74 in 0.8 mi Calm Calm - N/A   Mostly Cloudy
1:53 AM 57.0 °F 57.0 °F 100% 29.69 in 0.8 mi Calm Calm - N/A   Mostly Cloudy
2:01 AM 57.2 °F 57.2 °F 100% 29.75 in 1.0 mi NW 3.5 mph - N/A   Mostly Cloudy
2:53 AM 57.9 °F 55.9 °F 93% 29.67 in 6.0 mi Calm Calm - N/A   Mostly Cloudy
3:53 AM 57.0 °F 55.9 °F 96% 29.66 in 2.0 mi Calm Calm - N/A   Mostly Cloudy
4:00 AM 57.2 °F 55.4 °F 94% 29.73 in 3.0 mi Calm Calm - N/A   Mostly Cloudy
4:51 AM 57.2 °F 57.2 °F 100% 29.72 in 0.2 mi Calm Calm - N/A Fog Fog
4:53 AM 57.9 °F 57.0 °F 97% 29.66 in 0.2 mi Calm Calm - N/A Fog Fog
5:24 AM 57.2 °F 57.2 °F 100% 29.75 in 0.8 mi NW 13.8 mph - N/A   Mist
5:29 AM 57.2 °F 57.2 °F 100% 29.75 in 1.5 mi NNW 11.5 mph 19.6 mph N/A   Overcast
5:31 AM 57.2 °F 57.2 °F 100% 29.75 in 3.0 mi NNW 10.4 mph 19.6 mph N/A   Overcast
5:47 AM 57.2 °F 57.2 °F 100% 29.73 in 2.5 mi SE 4.6 mph - 0.00 in Rain Heavy Rain
5:53 AM 57.9 °F 57.0 °F 97% 29.68 in 1.8 mi North 3.5 mph - 0.11 in Rain Rain
5:57 AM 57.2 °F 57.2 °F 100% 29.74 in 3.0 mi NNE 3.5 mph - 0.01 in Rain Rain
6:48 AM 57.2 °F 57.2 °F 100% 29.75 in 6.0 mi Calm Calm - 0.08 in Thunderstorm Overcast
6:53 AM 57.9 °F 57.0 °F 97% 29.70 in 5.0 mi Calm Calm - 0.08 in Thunderstorm Overcast
7:17 AM 57.2 °F 57.2 °F 100% 29.77 in 5.0 mi Calm Calm - 0.00 in Rain Light Rain
7:19 AM 57.2 °F 57.2 °F 100% 29.77 in 5.0 mi Calm Calm - 0.00 in Rain Rain
7:53 AM 59.0 °F 57.9 °F 96% 29.72 in 2.0 mi Calm Calm - 0.03 in   Overcast
8:27 AM 59.0 °F 57.2 °F 94% 29.77 in 2.0 mi East 3.5 mph - 0.01 in   Overcast
8:45 AM 59.0 °F 57.2 °F 94% 29.78 in 2.0 mi South 3.5 mph - 0.01 in   Mostly Cloudy
8:53 AM 59.0 °F 57.9 °F 96% 29.71 in 2.0 mi SE 3.5 mph - 0.01 in   Overcast
9:06 AM 59.0 °F 57.2 °F 94% 29.76 in 2.0 mi Calm Calm - N/A   Mostly Cloudy
9:33 AM 60.8 °F 59.0 °F 94% 29.76 in 2.0 mi South 3.5 mph - N/A   Overcast
9:47 AM 60.8 °F 59.0 °F 94% 29.76 in 7.0 mi Calm Calm - N/A   Overcast
9:53 AM 62.1 °F 59.0 °F 90% 29.71 in 7.0 mi Calm Calm - N/A   Overcast
10:53 AM 64.9 °F 59.0 °F 81% 29.73 in 7.0 mi Calm Calm - N/A   Mostly Cloudy
11:53 AM 66.9 °F 59.0 °F 76% 29.72 in 10.0 mi NNW 5.8 mph - N/A   Mostly Cloudy
12:53 PM 68.0 °F 59.0 °F 73% 29.70 in 10.0 mi NW 5.8 mph - N/A   Mostly Cloudy
1:53 PM 71.1 °F 57.9 °F 63% 29.67 in 10.0 mi WNW 6.9 mph - N/A   Scattered Clouds
2:53 PM 69.1 °F 57.9 °F 68% 29.65 in 10.0 mi North 5.8 mph - N/A   Mostly Cloudy
3:53 PM 64.9 °F 57.0 °F 75% 29.66 in 10.0 mi NNE 5.8 mph - N/A   Overcast
4:21 PM 64.4 °F 55.4 °F 73% 29.70 in 10.0 mi NNE 6.9 mph - 0.00 in Rain , Thunderstorm Light Thunderstorms and Rain
4:53 PM 61.0 °F 54.0 °F 78% 29.65 in 10.0 mi North 11.5 mph 18.4 mph 0.00 in Rain , Thunderstorm Light Thunderstorms and Rain
5:53 PM 57.0 °F 55.0 °F 93% 29.70 in 4.0 mi ENE 5.8 mph - 0.08 in Rain , Thunderstorm Thunderstorms and Rain
6:16 PM 57.2 °F 55.4 °F 94% 29.71 in 9.0 mi East 6.9 mph - 0.04 in Rain Light Rain
6:53 PM 57.0 °F 55.0 °F 93% 29.71 in 10.0 mi North 5.8 mph - 0.05 in Rain Light Rain
7:36 PM 57.2 °F 53.6 °F 88% 29.75 in 10.0 mi ENE 3.5 mph - 0.00 in Rain Light Rain
7:53 PM 57.0 °F 55.0 °F 93% 29.70 in 6.0 mi Calm Calm - 0.03 in Rain Light Rain
8:12 PM 55.4 °F 55.4 °F 100% 29.72 in 5.0 mi NE 4.6 mph - 0.03 in Rain Rain
8:53 PM 55.9 °F 53.1 °F 90% 29.68 in 10.0 mi NNE 3.5 mph - 0.04 in Rain Light Rain
8:55 PM 55.4 °F 53.6 °F 94% 29.73 in 10.0 mi NE 5.8 mph - 0.00 in Rain Light Rain
9:20 PM 55.4 °F 51.8 °F 88% 29.74 in 10.0 mi NE 9.2 mph 17.3 mph 0.00 in   Mostly Cloudy
9:53 PM 54.0 °F 51.1 °F 90% 29.71 in 10.0 mi NNE 4.6 mph - 0.00 in   Mostly Cloudy
10:53 PM 54.0 °F 51.1 °F 90% 29.73 in 10.0 mi NNE 4.6 mph - N/A   Overcast
11:12 PM 53.6 °F 51.8 °F 94% 29.79 in 10.0 mi Calm Calm - N/A   Overcast
11:53 PM 54.0 °F 50.0 °F 86% 29.75 in 10.0 mi North 5.8 mph - N/A   Overcast